Regional Weather Roundup
Issued by NWS Grand Forks, ND

Home | Current Version | Previous Version | Text Only | Print | Product List | Glossary Off
Versions: 1 2 3 4 5 6 7 8 9 10 11 12 13 14 15 16 17 18 19 20 21 22 23 24 25 26 27 28 29 30 31 32 33 34 35 36 37 38 39 40 41 42 43 44 45 46 47 48 49 50

000
ASUS43 KFGF 230231
RWRFGF
PRAIRIE TO PINES  WEATHER ROUNDUP
NATIONAL WEATHER SERVICE EASTERN NORTH DAKOTA/GRAND FORKS ND
800 PM CST SUN JAN 22 2017

 **SATELLITE DATA USED TO AUGMENT SKY COVER AT AUTOMATED STATIONS**
 *****  WEATHER ACROSS EASTERN NORTH DAKOTA  *****

CITY           SKY/WX    TMP DP  RH WIND       PRES   REMARKS
GRAND FORKS    CLOUDY    34  29  82 W5        29.76S
GRAND FRKS AFB CLOUDY    33  30  88 NW8       29.77R
DEVILS LAKE    CLOUDY    30  27  88 W14       29.77R WCI  19
FARGO          CLOUDY    34  31  88 W6        29.79S FOG
WAHPETON ARPT  CLOUDY    32  30  93 NW7       29.81R
$$

 ***** WEATHER ACROSS CENTRAL AND WESTERN NORTH DAKOTA  *****

CITY           SKY/WX    TMP DP  RH WIND       PRES   REMARKS
BISMARCK       CLOUDY    32  27  81 W7        29.84S
MINOT          CLOUDY    31  27  85 W9        29.77F WCI  23
JAMESTOWN      CLOUDY    32  29  88 NW10      29.79S WCI  24
MINOT AFB      CLOUDY    30  27  86 W15       29.77S WCI  19
GARRISON         N/A     30  25  81 W10       29.79F WCI  21
WILLISTON      CLOUDY    29  23  78 W9        29.82F WCI  20
DICKINSON      CLOUDY    26  23  88 W13       29.80S WCI  15
HETTINGER      CLOUDY    25  22  88 NW10      29.84S WCI  15
$$

 *****  OTHER AIRPORT OBSERVATIONS IN OUR AREA  *****

CITY           SKY/WX    TMP DP  RH WIND       PRES   REMARKS
WALHALLA       NOT AVBL
GRAFTON AIRPOR CLOUDY    32  30  93 W5        29.78S
VALLEY CITY AR CLOUDY    32  32 100 NW10      29.81R WCI  24
CANDO          NOT AVBL
CAVALIER APRT  CLOUDY    32  28  86 W6        29.76R
GWINNER        CLOUDY    34  32  93 NW12      29.81S
SHEYENNE NWR     N/A     32  29  89 NW7       29.95S
ROLLA            N/A    N/A N/A N/A MISG        N/A
 ***** THE ABOVE OBSERVATIONS ARE NON NWS ARE NOT QUALITY
       CONTROLLED AND MAY MIS-REPORT RAIN FOR SNOW...
$$

  *****  WEATHER ACROSS NORTHERN MINNESOTA  *****

CITY           SKY/WX    TMP DP  RH WIND       PRES   REMARKS
FLAG ISLAND    FOG       32  32 100 CALM      29.73S VSB 1
WARROAD        FOG       34  28  80 CALM      29.73F VSB 1/4
ROSEAU         LGT RAIN  34  30  86 CALM      29.73F
HALLOCK        CLOUDY    34  32  93 CALM      29.75S FOG
THF RVR FALLS  LGT SNOW  30  28  93 SW5       29.76F FOG
BAUDETTE       FOG       33  33 100 CALM      29.73S VSB 1/2
WASKISH        FOG       34  34 100 CALM      29.73F VSB 1
CROOKSTON      CLOUDY    32  30  93 SW5       29.78S
STEPHEN NDAWN    N/A     32  32 100 SW5         N/A
GREENBUSH NDAW   N/A     32  32 100 SW3         N/A
$$
  *****  WEATHER ACROSS CENTRAL AND WEST MINNESOTA  *****

CITY           SKY/WX    TMP DP  RH WIND       PRES   REMARKS
FOSSTON        FOG       30  30 100 W6        29.77R VSB 1   WCI  24
BEMIDJI        CLOUDY    32  32 100 W7        29.74R FOG
PARK RAPIDS    CLOUDY    33  30  88 W7        29.74S FOG
ELBOW LAKE     CLOUDY    31  31 100 NW9       29.80R FOG     WCI  23
WADENA         CLOUDY    30  30 100 W5        29.76S FOG
DETROIT LAKES  CLOUDY    32  32 100 W3        29.78R FOG
MOORHEAD       CLOUDY    30  30 100 W5        29.81R FOG
FERGUS FALLS   CLOUDY    30  30 100 NW9       29.83S WCI  22
MORRIS MN      CLOUDY    34  30  86 W10       29.80R
STAPLES        FOG       30  30 100 W7        29.76S VSB 1/2 WCI  23
$$
  *****  WEATHER ELSEWHERE ACROSS MINNESOTA  *****

CITY           SKY/WX    TMP DP  RH WIND       PRES   REMARKS
DULUTH         CLOUDY    35  34  96 NW5       29.71R
INTRNTL FALLS  CLOUDY    35  33  92 NW3       29.72S FOG
ELY            LGT RAIN  34  34 100 CALM      29.71S VSB 1
CLOQUET        FOG       36  34  93 CALM      29.71F VSB 1
WHEATON        CLOUDY    39  39 100 W3        29.83S FOG
BRAINERD       CLOUDY    34  34 100 W3        29.74S FOG
HIBBING        CLOUDY    33  33 100 NW3       29.71S
ALEXANDRIA     CLOUDY    31  31 100 NW7       29.78S WCI  24
SAINT CLOUD    CLOUDY    33  33 100 W6        29.76S
MINNEAPOLIS    CLOUDY    37  34  89 W6        29.77R
$$

  *****  WEATHER ACROSS SOUTH DAKOTA  *****

CITY           SKY/WX    TMP DP  RH WIND       PRES   REMARKS
SIOUX FALLS    CLOUDY    31  28  89 NW15G22   29.85R WCI  20
BROOKINGS      CLOUDY    28  28 100 NW14      29.82S WCI  17
WATERTOWN      CLOUDY    29  27  92 W12       29.81R WCI  19
HURON          CLOUDY    30  27  88 NW14      29.88R WCI  19
SISSETON         N/A     34  31  88 NW14      29.80R WCI  25
ABERDEEN       CLOUDY    32  26  78 W13       29.85S WCI  22
MITCHELL       CLOUDY    32  28  85 NW10      29.89S WCI  24
PIERRE         CLOUDY    28  24  85 W5        29.88F WCI  23
MOBRIDGE       CLOUDY    30  24  78 NW13      29.84S WCI  20
RAPID CITY     FAIR      27  21  78 CALM      29.83F
$$

  *****  SOME WEATHER IN NEARBY STATES *****

CITY           SKY/WX    TMP DP  RH WIND       PRES   REMARKS
GLASGOW MT     CLOUDY    30  25  81 SW3       29.81S
GREAT FALLS MT FOG       24  23  96 NE13      29.69F VSB 1/4 WCI  12
CHEYENNE WY    FAIR      28   9  44 SW5       29.86R WCI  23
SCOTTSBLUFF NE FAIR      29  20  69 N7        29.88S WCI  22
OMAHA NE       FAIR      31  27  85 NW7       29.88R WCI  24
DES MOINES IA  CLOUDY    38  36  92 NW9       29.81R
DAVENPORT IA   MOCLDY    34  33  96 NW10      29.69F FOG
CHICAGO IL     CLOUDY    40  37  89 N7        29.65R
EAU CLAIRE WI  CLOUDY    35  34  96 W3        29.74R FOG
LA CROSSE WI   CLOUDY    39  35  86 NW3       29.75R
$$

  *****  SOME NATIONAL WEATHER *****

CITY           SKY/WX    TMP DP  RH WIND       PRES   REMARKS
LA GUARDIA NY  CLOUDY    49  41  74 NE17      29.78R
RALEIGH NC     LGT RAIN  54  53  97 E8        29.50R FOG
ATLANTA GA     CLOUDY    52  48  86 SW17G23   29.26R
NEW ORLEANS LA FAIR      62  46  55 W23G38    29.56R
OKLAHOMA CITY  FAIR      45  32  60 NW10      29.90R
ALBUQUERQUE NM CLOUDY    41  22  46 W10       30.13R
SALT LAKE CITY CLOUDY    36  27  69 S17G25    29.74F
LOS ANGELES CA LGT RAIN  53  53 100 VRB5      29.90R FOG
BOISE ID       FAIR      37  31  78 SE10      29.65R
SEATTLE WA     MOCLDY    43  37  79 E8        29.57S
$$

*** WEATHER ACROSS MANITOBA...SASKATCHEWAN AND ONTARIO ***
                ***ONTARIO***

CITY           SKY/WX    TMP DP  RH WIND       PRES   REMARKS
GERALDTON      LGT SNOW  30  30 100 E7        29.71S WCI  23
THUNDER BAY    CLOUDY    32  32 100 SW3       29.71R
SIOUX LOOKOUT  CLOUDY    32  32 100 VRB2      29.72F FOG
TORONTO        CLOUDY    39  32  75 E12G17    29.75S
BIG TROUT LK   CLOUDY    28  27  93 SE6       29.84S WCI  22
PICKLE LAKE    FLURRIES  28  27  93 NE3       29.76S
DRYDEN         FOG       34  34 100 NE3       29.72S VSB 1/4
KENORA         FOG       34  34 100 CALM      29.71S VSB 1/4
$$
                *** MANITOBA***

CITY           SKY/WX    TMP DP  RH WIND       PRES   REMARKS
BRANDON        CLOUDY    28  25  86 W10       29.72S WCI  19
DAUPHIN        FLURRIES  32  28  86 W13       29.69F WCI  22
ISLAND LAKE    FRZ DRZL  32  32 100 E3        29.77S
PILOT MOUND      N/A     28  27  93 W7          N/A  WCI  21
THE PAS        LGT SNOW  30  28  93 NE7       29.77R WCI  23
THOMPSON       FLURRIES  27  23  86 NE9       29.85R WCI  17
WINNIPEG       LGT SNOW  32  32 100 SW5       29.73S FOG
LYNN LAKE      FLURRIES  14  12  92 N10       29.92S WCI   1
CHURCHILL      CLOUDY    19  18  93 N15       29.99S FOG     WCI   5
GILLAM         LGT SNOW  25  23  93 NE8       29.87F WCI  16
$$
                ***SASKATCHEWAN***

CITY           SKY/WX    TMP DP  RH WIND       PRES   REMARKS
ESTEVAN        FLURRIES  27  25  93 W9        29.77S WCI  17
KINDERSLEY     FLURRIES  18  14  86 NW6       29.82S WCI   9
LLOYDMINSTER   FLURRIES  16  14  93 N8        29.86F WCI   5
PRINCE ALBERT  LGT SNOW  21  18  86 N9        29.79F WCI  11
REGINA         FLURRIES  23  19  86 W13       29.78S WCI  11
YORKTON        CLOUDY    27  25  93 NW16      29.70S WCI  14
N. BATTLEFORD  FLURRIES  16  16 100 N10       29.87S WCI   3
LA RONGE       FLURRIES  19  16  86 N10       29.89R WCI   8
SASKATOON      FLURRIES  18  12  79 NW7       29.83S WCI   8
SWIFT CURRENT  CLOUDY    19  19 100 NW10      29.76F WCI   8
$$
NOTE: THESE ARE AUTOMATED STATIONS WITH LIMITED QUALITY CONTROL
      "FAIR" INDICATES FEW OR NO CLOUDS BELOW 12,000 FEET WITH NO
      SIGNIFICANT WEATHER AND/OR OBSTRUCTIONS TO VISIBILITY.
      SKY/WX - SKY CONDITION AND SIGNIFICANT WEATHER.
      TMP - AIR TEMPERATURE.    DP   - DEWPOINT TEMPERATURE.
      RH  - RELATIVE HUMIDITY.  PRES - PRESSURE.
      HX  - HEAT INDEX.         WCI  - WIND CHILL INDEX.
$




USA.gov is the U.S. government's official web portal to all federal, state and local government web resources and services.